[[{"header":{"parameterUnit":"m.s-1","parameterCategory":1,"la1":30.2991,"la2":30.254,"lo1":-89.0895,"lo2":-89.0444,"dy":0.0017,"dx":0.0017,"nx":28,"ny":28,"refTime":"2025-03-09T21:00:00:Z","depth":0,"parameterNumber":2,"parameterNumberName":"U-component_of_WINDS"},"data":[0,0,0,0,0,0,0,0,0,0,0,0,0,0,0,0,0,0,0,0,0,0,0,0,0,0,0,0,0,0,0,0,0,0,0,0,0,0,0,0,0,0,0,0,0,0,0,0,0,0,0,0,0,0,0,0,0,0,-0.8499,-0.85,0,-0.8648,-0.865,-0.8652,-0.8754,-0.8755,-0.8756,-0.8757,-0.8908,-0.8912,-0.8915,0,0,0,0,0,0,0,0,0,0,0,0,0,-0.8299,-0.8302,-0.8498,-0.85,-0.8502,-0.8648,-0.865,-0.8652,-0.8754,-0.8755,-0.8756,-0.8757,-0.8907,-0.8911,-0.8915,0,0,0,0,0,0,0,0,0,0,0,0,0,-0.841,-0.8303,-0.8498,-0.8571,-0.8579,-0.8648,-0.865,-0.8653,-0.8754,-0.8755,-0.8756,-0.8757,-0.8906,-0.8911,-0.8916,-0.8924,0,0,-0.8931,-0.8933,0,0,0,0,0,0,0,0,-0.8404,-0.8418,-0.8558,-0.8566,-0.8575,-0.8684,-0.8636,-0.8744,-0.8754,-0.8687,-0.8757,-0.8758,-0.8833,-0.8844,-0.8869,-0.8931,-0.8937,-0.8931,-0.8934,-0.8937,-0.8938,0,0,0,0,0,0,0,-0.8396,-0.8412,-0.8558,-0.856,-0.857,-0.8595,-0.8612,-0.8656,-0.8752,-0.8693,-0.8701,-0.8718,-0.8837,-0.8864,-0.8874,-0.894,-0.8931,-0.8936,-0.8939,-0.8941,-0.9016,-0.9015,0,0,0,0,0,0,-0.8377,-0.8405,-0.8553,-0.8562,-0.8491,-0.8598,-0.8617,-0.8648,-0.8752,-0.8769,-0.8716,-0.8722,-0.8855,-0.8868,-0.8879,-0.8896,-0.8937,-0.8941,-0.8944,-0.9017,-0.9015,-0.9014,0,0,0,0,0,0,-0.8373,-0.839,-0.8547,-0.8486,-0.8508,-0.86,-0.8634,-0.865,-0.8677,-0.8769,-0.8786,-0.8726,-0.8856,-0.8872,-0.8912,-0.8903,-0.8943,-0.8948,-0.9018,-0.9016,-0.9015,-0.8929,0,0,0,0,0,0,-0.8366,-0.8387,-0.8392,-0.8485,-0.8511,-0.8577,-0.8633,-0.8652,-0.8686,-0.8694,-0.8783,-0.8799,-0.8859,-0.8904,-0.8917,-0.891,-0.8952,-0.9019,-0.9017,-0.9015,-0.8933,-0.8924,-0.8917,0,0,0,0,0,-0.8359,-0.8361,-0.8391,-0.8409,-0.8518,-0.8577,-0.8591,-0.8661,-0.8684,-0.8689,-0.8749,-0.8796,-0.8901,-0.8907,-0.8923,-0.8917,-0.902,-0.9018,-0.9015,-0.8936,-0.8926,-0.8917,0,0,0,0,0,0,-0.8263,-0.8375,-0.841,-0.8442,-0.8499,-0.8594,-0.8603,-0.8647,-0.8699,-0.8704,-0.8787,-0.8807,-0.8838,-0.8882,-0.8886,-0.8931,-0.8966,-0.8967,-0.8901,-0.8892,-0.8884,-0.8873,-0.8956,0,0,0,0,0,-0.8246,-0.8285,-0.838,-0.84,-0.8427,-0.8509,-0.8537,-0.8586,-0.8648,-0.8673,-0.8735,-0.8793,-0.8839,-0.8868,-0.8916,-0.8939,-0.896,-0.8943,-0.8935,-0.8929,-0.8928,-0.8944,-0.8938,-0.9007,-0.9007,-0.9007,0,0,-0.8211,-0.8277,-0.8296,-0.8382,-0.8432,-0.847,-0.8529,-0.8567,-0.8595,-0.8678,-0.872,-0.8767,-0.8838,-0.8869,-0.8887,-0.8907,-0.8914,-0.8926,-0.892,-0.8923,-0.8941,-0.8935,-0.8929,-0.9005,-0.9005,-0.9006,0,0,-0.8166,-0.822,-0.8242,-0.8291,-0.8367,-0.8422,-0.8426,-0.8515,-0.855,-0.8593,-0.8656,-0.8691,-0.8769,-0.8817,-0.8851,-0.8824,-0.887,-0.8837,-0.8797,-0.8811,-0.8806,-0.8801,-0.8792,-0.8788,-0.8836,-0.8836,-0.8836,0,-0.8113,-0.8174,-0.8248,-0.8282,-0.8318,-0.8395,-0.8418,-0.8462,-0.8548,-0.8571,-0.8592,-0.8692,-0.8745,-0.8789,-0.8782,-0.8808,-0.8816,-0.8828,-0.8801,-0.8797,-0.8794,-0.8786,-0.8782,-0.8832,-0.8832,-0.8833,-0.8833,0,-0.8104,-0.8145,-0.8154,-0.8236,-0.8273,-0.8301,-0.8379,-0.8407,-0.8452,-0.8504,-0.8547,-0.8613,-0.8676,-0.869,-0.8734,-0.874,-0.8751,-0.8785,-0.8823,-0.8782,-0.8776,-0.8773,-0.8825,-0.8827,-0.8828,-0.8829,0,0,-0.8004,-0.8127,-0.8129,-0.8168,-0.8256,-0.8289,-0.832,-0.8382,-0.8404,-0.8461,-0.8489,-0.8554,-0.8586,-0.8625,-0.8675,-0.8688,-0.8662,-0.8721,-0.8724,-0.8708,-0.8674,-0.8647,-0.8642,-0.8693,-0.8693,-0.8693,-0.8668,0,-0.7973,-0.8035,-0.8102,-0.814,-0.8178,-0.8252,-0.8279,-0.8336,-0.8386,-0.8425,-0.848,-0.8524,-0.8564,-0.8588,-0.8604,-0.8662,-0.8657,-0.8665,-0.872,-0.8721,-0.8701,-0.8639,-0.8612,-0.8585,-0.8666,-0.8666,-0.8665,0,-0.7946,-0.8,-0.8041,-0.8126,-0.8145,-0.8168,-0.823,-0.8267,-0.8333,-0.8368,-0.8411,-0.8465,-0.8501,-0.8534,-0.8585,-0.8589,-0.8615,-0.8647,-0.8648,-0.8656,-0.8691,-0.8646,-0.8579,-0.8574,-0.8662,-0.8662,-0.8663,0,-0.7869,-0.7951,-0.7987,-0.8018,-0.8118,-0.8132,-0.8175,-0.8242,-0.8274,-0.8328,-0.835,-0.8407,-0.8438,-0.8481,-0.8548,-0.8566,-0.8592,-0.8631,-0.8622,-0.8621,-0.8625,-0.8624,-0.8561,-0.8641,-0.8641,-0.8641,-0.8641,0,-0.7827,-0.785,-0.7954,-0.7976,-0.8003,-0.808,-0.8105,-0.8154,-0.8212,-0.8245,-0.8311,-0.834,-0.8427,-0.8466,-0.8519,-0.8553,-0.8567,-0.8596,-0.861,-0.859,-0.8586,-0.8609,-0.8613,-0.864,-0.864,-0.8641,-0.8641,0,-0.7746,-0.7817,-0.7861,-0.7952,-0.7975,-0.7991,-0.8069,-0.8093,-0.8146,-0.8186,-0.82,-0.8284,-0.8333,-0.8404,-0.8475,-0.851,-0.8537,-0.8559,-0.8515,-0.8523,-0.8511,-0.8511,-0.8461,-0.8458,-0.8539,-0.8538,-0.8537,0,-0.7715,-0.7735,-0.7828,-0.7855,-0.7895,-0.7937,-0.7971,-0.8047,-0.8079,-0.8156,-0.817,-0.8225,-0.8272,-0.8348,-0.8414,-0.8469,-0.8493,-0.8472,-0.8502,-0.8481,-0.8493,-0.8491,-0.8494,-0.8464,-0.8463,-0.8462,-0.8461,0,-0.7653,-0.7687,-0.7734,-0.7793,-0.7831,-0.7881,-0.7934,-0.7952,-0.8039,-0.8072,-0.8124,-0.8161,-0.8233,-0.8286,-0.835,-0.8393,-0.8441,-0.8451,-0.8452,-0.8433,-0.8406,-0.8421,-0.8495,-0.8452,-0.8453,-0.8454,-0.8454,-0.8454,-0.7597,-0.7617,-0.7686,-0.7736,-0.7784,-0.7832,-0.7859,-0.7915,-0.796,-0.8025,-0.8067,-0.8116,-0.8182,-0.8272,-0.8313,-0.8352,-0.8372,-0.8374,-0.8374,-0.8373,-0.8367,-0.8399,-0.8364,-0.8364,-0.8365,-0.8365,-0.8365,0,-0.7538,-0.7586,-0.7631,-0.7703,-0.7742,-0.7785,-0.7845,-0.7875,-0.7918,-0.7975,-0.802,-0.8079,-0.8131,-0.8202,-0.8259,-0.8277,-0.83,-0.8289,-0.8289,-0.8298,-0.8345,-0.8339,-0.8269,-0.8269,-0.8269,-0.8269,-0.8269,-0.8269,-0.7512,-0.7549,-0.7591,-0.7653,-0.7701,-0.775,-0.7781,-0.7825,-0.7871,-0.7934,-0.7978,-0.8024,-0.8086,-0.8148,-0.8198,-0.8217,-0.8235,-0.8217,-0.8243,-0.8286,-0.8295,-0.8303,-0.8297,-0.822,-0.822,-0.8193,-0.8193,-0.8193]},{"header":{"parameterUnit":"m.s-1","parameterCategory":1,"la1":30.2991,"la2":30.254,"lo1":-89.0895,"lo2":-89.0444,"dy":0.0017,"dx":0.0017,"nx":28,"ny":28,"refTime":"2025-03-09T21:00:00:Z","depth":0,"parameterNumber":3,"parameterNumberName":"V-component_of_WINDS"},"data":[0,0,0,0,0,0,0,0,0,0,0,0,0,0,0,0,0,0,0,0,0,0,0,0,0,0,0,0,0,0,0,0,0,0,0,0,0,0,0,0,0,0,0,0,0,0,0,0,0,0,0,0,0,0,0,0,0,0,-1.0031,-1.0031,0,-1.0099,-1.01,-1.01,-1.0109,-1.0108,-1.0107,-1.0107,-1.0175,-1.0177,-1.0179,0,0,0,0,0,0,0,0,0,0,0,0,0,-0.9904,-0.9906,-1.003,-1.0031,-1.0032,-1.0099,-1.01,-1.0101,-1.0109,-1.0108,-1.0107,-1.0107,-1.0174,-1.0177,-1.018,0,0,0,0,0,0,0,0,0,0,0,0,0,-0.9964,-0.9907,-1.003,-1.0044,-1.0046,-1.0099,-1.01,-1.0101,-1.0109,-1.0108,-1.0107,-1.0106,-1.0173,-1.0176,-1.018,-1.0222,0,0,-1.0191,-1.0193,0,0,0,0,0,0,0,0,-0.9961,-0.9969,-1.0041,-1.0044,-1.0046,-1.0094,-1.008,-1.0142,-1.0109,-1.0085,-1.0107,-1.0106,-1.0149,-1.0154,-1.0169,-1.0225,-1.0228,-1.0191,-1.0194,-1.0195,-1.0196,0,0,0,0,0,0,0,-0.9957,-0.9966,-1.0057,-1.0042,-1.0045,-1.0046,-1.0054,-1.0092,-1.0122,-1.0087,-1.0088,-1.0096,-1.015,-1.0166,-1.0171,-1.0229,-1.0191,-1.0195,-1.0197,-1.0198,-1.0324,-1.0325,0,0,0,0,0,0,-0.995,-0.9963,-1.0055,-1.006,-1.0,-1.0049,-1.0058,-1.008,-1.0121,-1.0127,-1.0097,-1.0096,-1.016,-1.0167,-1.0173,-1.0226,-1.0195,-1.0199,-1.0201,-1.0323,-1.0324,-1.0326,0,0,0,0,0,0,-0.9948,-0.9959,-1.0053,-1.0011,-1.0023,-1.0053,-1.0077,-1.0082,-1.0098,-1.0129,-1.0134,-1.0108,-1.0159,-1.0168,-1.021,-1.0229,-1.02,-1.0204,-1.0322,-1.0323,-1.0325,-1.0332,0,0,0,0,0,0,-0.9944,-0.9958,-0.9975,-1.0012,-1.0026,-1.0089,-1.0078,-1.0084,-1.0104,-1.0104,-1.014,-1.0145,-1.0159,-1.0205,-1.0214,-1.0233,-1.0206,-1.032,-1.0322,-1.0324,-1.033,-1.0334,-1.0337,0,0,0,0,0,-0.9939,-0.9973,-0.9975,-0.9987,-1.0048,-1.009,-1.0098,-1.0114,-1.0106,-1.0123,-1.0142,-1.0144,-1.0225,-1.0209,-1.0219,-1.024,-1.0319,-1.0322,-1.0324,-1.0329,-1.0333,-1.0337,0,0,0,0,0,0,-0.9937,-0.9978,-0.9981,-1.0028,-1.0056,-1.0092,-1.0114,-1.0118,-1.0148,-1.0147,-1.0164,-1.0172,-1.0214,-1.0231,-1.0213,-1.0283,-1.0271,-1.0276,-1.0271,-1.0275,-1.0278,-1.0274,-1.0209,0,0,0,0,0,-0.9941,-0.9974,-1.0008,-1.0046,-1.006,-1.0084,-1.0103,-1.0113,-1.0142,-1.0154,-1.0177,-1.0204,-1.0236,-1.0256,-1.0287,-1.0332,-1.034,-1.0351,-1.0354,-1.0357,-1.0361,-1.0387,-1.0392,-1.0334,-1.0334,-1.0334,0,0,-0.9952,-0.9979,-0.9998,-1.0046,-1.0069,-1.0101,-1.0094,-1.0128,-1.0152,-1.0159,-1.0201,-1.0218,-1.025,-1.0294,-1.0314,-1.0309,-1.0379,-1.036,-1.0362,-1.0365,-1.039,-1.0396,-1.0401,-1.0336,-1.0336,-1.0335,0,0,-0.9988,-1.0011,-1.0046,-1.0069,-1.0103,-1.0119,-1.0127,-1.0163,-1.0175,-1.0217,-1.0223,-1.0251,-1.0305,-1.0327,-1.0346,-1.039,-1.0393,-1.0399,-1.0416,-1.0441,-1.0446,-1.045,-1.0466,-1.0472,-1.0403,-1.0403,-1.0403,0,-0.9996,-1.0046,-1.0063,-1.0097,-1.0118,-1.0126,-1.0161,-1.0182,-1.0224,-1.0238,-1.0232,-1.03,-1.0322,-1.0372,-1.0382,-1.0397,-1.0407,-1.0396,-1.0444,-1.0448,-1.0452,-1.0468,-1.0474,-1.0403,-1.0403,-1.0403,-1.0403,0,-1.0055,-1.0089,-1.0113,-1.0155,-1.0178,-1.0213,-1.0234,-1.0256,-1.0263,-1.028,-1.0322,-1.0349,-1.0385,-1.0397,-1.0404,-1.0448,-1.0444,-1.044,-1.0429,-1.0458,-1.0474,-1.048,-1.0404,-1.0404,-1.0404,-1.0404,0,0,-1.0092,-1.0143,-1.0151,-1.0171,-1.0209,-1.0236,-1.027,-1.0306,-1.0325,-1.0353,-1.0383,-1.0428,-1.0425,-1.0446,-1.0455,-1.0477,-1.0511,-1.0471,-1.0472,-1.0478,-1.0562,-1.0565,-1.0572,-1.0513,-1.0514,-1.0515,-1.0559,0,-1.0133,-1.0196,-1.0212,-1.0266,-1.0298,-1.0305,-1.0335,-1.0361,-1.0377,-1.0406,-1.0423,-1.0456,-1.0449,-1.0462,-1.0483,-1.0502,-1.0528,-1.0499,-1.054,-1.0542,-1.0534,-1.058,-1.0584,-1.0625,-1.0565,-1.0566,-1.0567,0,-1.019,-1.0221,-1.0278,-1.0313,-1.0327,-1.0354,-1.0389,-1.0416,-1.0446,-1.0456,-1.0479,-1.0487,-1.0522,-1.0508,-1.0557,-1.0537,-1.0554,-1.0566,-1.0568,-1.0573,-1.0557,-1.0588,-1.0638,-1.0645,-1.0576,-1.0576,-1.0575,0,-1.0213,-1.0268,-1.031,-1.0326,-1.0367,-1.0386,-1.0404,-1.0433,-1.0454,-1.0483,-1.0497,-1.053,-1.0549,-1.0574,-1.059,-1.0577,-1.0638,-1.0624,-1.0647,-1.0647,-1.0661,-1.066,-1.0716,-1.067,-1.067,-1.0669,-1.0669,0,-1.0258,-1.0293,-1.0321,-1.0347,-1.0386,-1.0403,-1.0441,-1.0459,-1.0484,-1.0513,-1.052,-1.0547,-1.0566,-1.0595,-1.0607,-1.0647,-1.0654,-1.0663,-1.0667,-1.0664,-1.0663,-1.0677,-1.0675,-1.0671,-1.0671,-1.067,-1.067,0,-1.0291,-1.0311,-1.0357,-1.0392,-1.0402,-1.0429,-1.0459,-1.0484,-1.05,-1.0536,-1.0546,-1.057,-1.0605,-1.0623,-1.0666,-1.0674,-1.0719,-1.0719,-1.0709,-1.0711,-1.0733,-1.0731,-1.0801,-1.0811,-1.0757,-1.0757,-1.0758,0,-1.0319,-1.0346,-1.0385,-1.0405,-1.0424,-1.0456,-1.0478,-1.0495,-1.0517,-1.0553,-1.0573,-1.0609,-1.0638,-1.0693,-1.0714,-1.0747,-1.0749,-1.0771,-1.0754,-1.0751,-1.0751,-1.075,-1.0753,-1.0775,-1.0775,-1.0776,-1.0776,0,-1.0367,-1.0376,-1.0408,-1.0443,-1.0469,-1.0497,-1.0525,-1.0541,-1.0562,-1.0586,-1.0623,-1.0645,-1.0689,-1.0724,-1.0759,-1.0776,-1.078,-1.0781,-1.0788,-1.0786,-1.078,-1.0785,-1.0719,-1.078,-1.0779,-1.0779,-1.0779,-1.0779,-1.04,-1.0425,-1.0456,-1.0491,-1.0514,-1.054,-1.0565,-1.0584,-1.0615,-1.0653,-1.0661,-1.0699,-1.0727,-1.0774,-1.0793,-1.0822,-1.0818,-1.0828,-1.0831,-1.0833,-1.0835,-1.0774,-1.0828,-1.0828,-1.0828,-1.0828,-1.0828,0,-1.045,-1.047,-1.0502,-1.0541,-1.0569,-1.057,-1.0601,-1.0623,-1.0657,-1.0684,-1.0713,-1.0754,-1.0788,-1.0812,-1.0846,-1.0865,-1.0868,-1.0874,-1.0873,-1.0877,-1.0837,-1.0828,-1.0871,-1.0871,-1.0871,-1.0871,-1.0871,-1.0871,-1.0479,-1.0522,-1.0534,-1.0588,-1.0607,-1.0646,-1.0664,-1.0687,-1.0709,-1.0755,-1.0784,-1.0799,-1.0825,-1.0861,-1.0892,-1.0898,-1.091,-1.0917,-1.0923,-1.0885,-1.088,-1.0876,-1.0868,-1.0919,-1.0919,-1.0961,-1.0962,-1.0962]}]]